Regional Weather Roundup
Issued by NWS San Angelo, TX

Home | Current Version | Previous Version | Text Only | Print | Product List | Glossary On
Versions: 1 2 3 4 5 6 7 8 9 10 11 12 13 14 15 16 17 18 19 20 21 22 23 24 25 26 27 28 29 30 31 32 33 34 35 36 37 38 39 40 41 42 43 44 45 46 47 48 49 50
000
ASUS44 KSJT 011710
RWRSJT
WEST CENTRAL TEXAS REGIONAL WEATHER ROUNDUP
NATIONAL WEATHER SERVICE SAN ANGELO TX
1200 PM CDT WED OCT 01 2014

NOTE: "FAIR" INDICATES FEW OR NO CLOUDS BELOW 12,000 FEET WITH NO
SIGNIFICANT WEATHER AND/OR OBSTRUCTIONS TO VISIBILITY.

TXZ049-054-064>066-071>073-076>078-098-099-113-114-127-128-139-140-
154-155-168>170-011800
...LOCATIONS ACROSS WEST CENTRAL TEXAS...

CITY           SKY/WX    TMP DP  RH WIND       PRES   REMARKS
SAN ANGELO     SUNNY     87  67  51 S16       29.83F
ABILENE        SUNNY     84  66  54 S17       29.83F
DYESS AFB      SUNNY     84  66  55 S15       29.82S
JUNCTION       SUNNY     85  67  54 S13G18    29.85F
SWEETWATER     SUNNY     82  65  57 S14G22    29.88S
BROWNWOOD      SUNNY     84  68  58 S7        29.84F
COLEMAN        SUNNY     84  65  52 S12G17    29.85F
SONORA         SUNNY     82  66  57 S13       29.91F
OZONA          FAIR      82  64  54 S13G21    29.90F
BRADY          SUNNY     84  66  54 VRB7      29.85F
$$

TEXAS PANHANDLE/OKLAHOMA PANHANDLE

CITY           SKY/WX    TMP DP  RH WIND       PRES   REMARKS
AMARILLO       SUNNY     74  43  32 NW9       29.87S
BORGER         SUNNY     76  41  28 MISG      29.84S
CANADIAN       SUNNY     76  49  39 NW12      29.78S
DALHART        SUNNY     77  38  24 N9        29.89S
DUMAS          SUNNY     76  39  26 NW6       29.87S
GUYMON         NOT AVBL
HEREFORD       SUNNY     76  43  30 N5        29.90R
PAMPA          SUNNY     74  41  31 NW12      29.85S
PERRYTON       SUNNY     76  56  49 NW10      29.80S
$$

SOUTHERN PANHANDLE/SOUTH PLAINS/ROLLING PLAINS

CITY           SKY/WX    TMP DP  RH WIND       PRES   REMARKS
LUBBOCK        SUNNY     77  49  37 W9        29.87S
SNYDER         SUNNY     79  67  65 S14       29.85F
CHILDRESS      SUNNY     84  49  29 W7        29.79S
SEMINOLE       SUNNY     78  63  60 W7        29.90S
$$

PERMIAN BASIN

CITY           SKY/WX    TMP DP  RH WIND       PRES   REMARKS
MIDLAND        SUNNY     83  63  50 SW12      29.87S
ODESSA         MOSUNNY   81  59  47 SW9       29.88S
WINK           SUNNY     83  51  33 W12       29.87R
$$

FAR WEST/SOUTHWEST MOUNTAINS/TRANS PECOS

CITY           SKY/WX    TMP DP  RH WIND       PRES   REMARKS
ALPINE         SUNNY     81  52  37 SW3       30.05S
DRYDEN           N/A     84  66  54 E5        29.85F
EL PASO        SUNNY     78  37  22 SW13      29.95S
FORT STOCKTON  SUNNY     86  52  30 NW7       29.90S
GUADALUPE PASS SUNNY     70  42  36 SW29      30.03F
MARFA          SUNNY     79  50  36 W7        30.05S
PECOS          SUNNY     86  46  24 W13G18    29.88S
$$

DALLAS/FORT WORTH METROPLEX

CITY           SKY/WX    TMP DP  RH WIND       PRES   REMARKS
DFW AIRPORT    MOSUNNY   85  69  58 S14       29.82F
FTW MEACHAM    MOSUNNY   88  69  53 MISG      29.81F
DAL-EXECUTIVE  MOSUNNY   86  69  56 S9G17     29.83F
GRAND PRAIRIE  SUNNY     81  68  65 MISG      29.85S
ADDISON        MOSUNNY   84  68  58 S13G23    29.84F
MESQUITE       PTSUNNY   84  68  58 S10G18    29.85S
LANCASTER      PTSUNNY   82  67  61 S12       29.85F
$$

NORTH CENTRAL TEXAS

CITY           SKY/WX    TMP DP  RH WIND       PRES   REMARKS
SHRMAN/DENISON SUNNY     84  69  59 S10       29.84S HAZE
GAINESVILLE    SUNNY     84  69  61 S9        29.84F
BRIDGEPORT     SUNNY     87  64  45 SW9       29.83S
DENTON         SUNNY     85  69  58 S12       29.81F
WAXAHACHIE     PTSUNNY   84  70  63 S12G17    29.85F
GRANBURY       SUNNY     90  64  41 S9        29.82F
$$

WESTERN NORTH TEXAS

CITY           SKY/WX    TMP DP  RH WIND       PRES   REMARKS
WICHITA FALLS  SUNNY     87  65  47 S20       29.77S
VERNON         SUNNY     87  63  44 SW16G22   29.77S
BRECKENRIDGE     N/A     88  64  44 SW12      29.81F HAZE
COMANCHE       SUNNY     86  65  50 S9G17     29.84S
$$

CENTRAL AND SOUTH CENTRAL TEXAS

CITY           SKY/WX    TMP DP  RH WIND       PRES   REMARKS
AUSTIN/BERGSTM MOSUNNY   84  70  62 S12       29.83F
WACO           MOSUNNY   85  70  60 S8        29.84S
HILLSBORO      PTSUNNY   85  68  57 S13G18    29.85S
TEMPLE         PTSUNNY   82  66  57 S9        29.83F
KILLEEN-GRAY   MOSUNNY   84  68  58 S13       29.84S
FORT HOOD      MOSUNNY   84  70  61 S10G16    29.84
GEORGETOWN     MOSUNNY   84  70  61 S13       29.84F
LAGO VISTA     PTSUNNY   82  69  62 S8        29.87S
SAN MARCOS     PTSUNNY   84  68  58 S9        29.84F
NEW BRAUNFELS  MOSUNNY   86  70  58 S12       29.83F
RANDOLPH AFB   PTSUNNY   82  72  69 SW9       29.85S
SAN ANTONIO    PTSUNNY   86  70  58 S10       29.85S
STINSON        MOSUNNY   84  72  67 SE6       29.83F
PLEASANTON     NOT AVBL
LA GRANGE      MOSUNNY   85  75  72 S7        29.82S
GIDDINGS       MOSUNNY   85  71  63 S9        29.87F
$$

EAST TEXAS

CITY           SKY/WX    TMP DP  RH WIND       PRES   REMARKS
PARIS          CLOUDY    81  66  61 S13       29.87S
CLARKSVILLE    NOT AVBL
TYLER          NOT AVBL
LONGVIEW       PTSUNNY   85  71  63 SE12      29.87S
PALESTINE      PTSUNNY   83  73  73 SW6       29.88S
NACOGDOCHES    MOSUNNY   82  73  74 S10       29.88S
$$

TEXAS HILL COUNTRY AND EDWARDS PLATEAU

CITY           SKY/WX    TMP DP  RH WIND       PRES   REMARKS
LLANO          SUNNY     84  70  61 S10G16    29.87F
HORSESHOE BAY  PTSUNNY   84  67  57 S8        29.86S
KERRVILLE      PTSUNNY   81  71  72 S8        29.88S
FREDERICKSBRG  PTSUNNY   80  68  66 SW9       29.88S
ROCKSPRINGS    MOSUNNY   81  68  65 S15G21    29.91S
HONDO          MOSUNNY   86  71  60 SE8       29.86F
UVALDE         MOSUNNY   82  74  75 S6        29.85S
DEL RIO        SUNNY     83  72  69 SE12      29.81F
$$

SOUTHEAST TEXAS

CITY           SKY/WX    TMP DP  RH WIND       PRES   REMARKS
COLLEGE STN    MOSUNNY   85  72  65 S7        29.84F
CALDWELL       MOSUNNY   84  70  61 SE10      29.87F
CROCKETT       SUNNY     88  75  66 SE6       29.88F
BRENHAM        MOSUNNY   89  73  60 S8        29.85S
HUNTSVILLE     PTSUNNY   88  70  55 S7        29.85F
CONROE         MOSUNNY   86  72  62 SE7       29.85F
HOUSTON BUSH   MOSUNNY   87  74  64 VRB5      29.84F
HOUSTON HOBBY  MOSUNNY   87  73  62 VRB3      29.84S
PERLAND        MOSUNNY   88  73  61 SW6       29.85F
WHARTON        MOSUNNY   86  74  67 S7        29.84F
$$

THE UPPER TEXAS COAST

CITY           SKY/WX    TMP DP  RH WIND       PRES   REMARKS
ORANGE         MOSUNNY   85  74  70 E9        29.88F
PORT ARTHUR    MOSUNNY   87  75  67 S6        29.85F
GALVESTON      SUNNY     86  78  77 S10       29.85F
ANGLETON       PTSUNNY   86  73  65 SW6       29.84F
BAY CITY       MOSUNNY   87  75  67 SW8       29.84F
$$

TEXAS COASTAL BEND, RIO GRANDE PLAINS DEEP SOUTH TEXAS

CITY           SKY/WX    TMP DP  RH WIND       PRES   REMARKS
VICTORIA       MOSUNNY   88  76  67 SW9       29.83F
BEEVILLE       FAIR      86  74  67 S8        29.83F
ROCKPORT       MOSUNNY   88  75  65 SE10      29.82F
PORT ARANSAS   MOSUNNY   84  77  79 S8        29.83F
PORT LAVACA    MOSUNNY   86  76  71 S7        29.83F
CORPUS CHRISTI MOSUNNY   87  75  67 S8        29.83S
KINGSVILLE NAS MOSUNNY   88  79  74 S7        29.83S
COTULLA        MOSUNNY   88  71  57 S10       29.82F
LAREDO         SUNNY     89  73  59 SE12      29.83F
BROWNSVILLE    MOSUNNY   89  81  77 S12G23    29.82S
PORT ISABEL    SUNNY     89  77  67 SE12      29.82S
HEBBRONVILLE     N/A     85  74  68 SE9       29.84F
MCALLEN        SUNNY     87  76  69 SE15      29.82F
WESLACO        MOSUNNY   88  74  63 S14       29.82S
FALFURRIAS     MOSUNNY   85  75  72 S5        29.82F
EDINBURG       SUNNY     90  74  60 S12       29.82S
$$


USA.gov is the U.S. government's official web portal to all federal, state and local government web resources and services.